#timestamp,LO_Frequency,Hit,StdDev 
1542420015.4,286047001.1,N
1542420035.2,286046999.8,N
1542420055.1,286046999.9,N
1542420056.0,286046999.9,N
1542420075.8,286046998.2,N
1542420095.6,286046998.2,N
1542420115.5,286046998.1,N
1542420135.3,286046998.5,N
1542420155.1,286046998.1,N
1542420175.9,286046998.6,N
1542420195.7,286046998.5,N
1542420215.6,286047000.6,N
1542420235.4,286047000.0,N
1542420255.2,286047000.3,N
1542420275.1,286047002.4,N
1542420276.0,286047002.4,N
1542420295.3,286046999.9,N
1542420315.1,286047002.3,N
1542420335.8,286046999.8,N
1542420355.7,286047000.0,N
1542420375.5,286046998.1,N
1542420395.4,286047000.4,N
1542420415.2,286047002.1,N
1542420435.0,286047002.0,N
1542420435.9,286047002.0,N
1542420455.8,286047002.1,N
1542420475.6,286047002.2,N
1542420495.4,286047000.4,N
1542420515.3,286047000.3,N
1542420535.1,286047002.6,N
1542420555.9,286046999.7,N
1542420575.7,286047002.7,N
1542420595.5,286046999.7,N
1542420615.4,286047002.6,N
1542420635.2,286047002.4,N
1542420655.0,286047002.2,N
1542420655.9,286047002.2,N
1542420675.8,286046999.7,N
1542420695.6,286046999.7,N
1542420715.5,286047000.1,N
1542420735.3,286047002.7,N
1542420755.1,286046999.7,N
1542420775.9,286046999.9,N
1542420795.7,286047002.6,N
1542420815.5,286047002.3,N
1542420835.4,286047002.1,N
1542420855.2,286047002.5,N
1542420875.0,286047002.4,N
1542420876.0,286047002.4,N
1542420895.8,286047000.1,N
1542420915.6,286047000.0,N
1542420935.5,286047001.1,N
1542420955.3,286047000.0,N
1542420975.1,286046998.1,N
1542420995.9,286046998.4,N
1542421015.7,286047000.0,N
1542421035.5,286047002.2,N
1542421055.4,286047002.2,N
1542421075.2,286047002.2,N
1542421095.1,286046999.7,N
1542421096.0,286046999.7,N
1542421115.8,286046999.8,N
1542421135.6,286047000.1,N
1542421155.5,286047000.2,N
1542421175.3,286046998.9,N
1542421195.1,286046998.4,N
1542421215.9,286046998.4,N
1542421235.7,286046999.3,N
1542421255.6,286046998.2,N
1542421275.4,286047000.8,N
1542421295.2,286047001.0,N
1542421315.1,286047000.8,N
1542421316.0,286047000.8,N
1542421335.8,286047001.2,N
1542421355.6,286046998.6,N
1542421375.5,286046998.4,N
1542421395.3,286047001.2,N
1542421415.2,286047000.9,N
1542421435.9,286046998.1,N
1542421455.7,286046998.7,N
1542421475.6,286046998.1,N
1542421495.4,286046998.4,N
1542421515.2,286046997.5,N
1542421535.1,286046997.0,N
1542421536.0,286046997.0,N
1542421555.8,286046999.5,N
1542421575.7,286046996.7,N
1542421595.5,286046997.0,N
1542421615.3,286046997.8,N
1542421635.2,286046996.9,N
1542421655.0,286046997.9,N
1542421655.9,286046997.9,N
1542421675.7,286046997.6,N
1542421695.6,286046997.6,N
1542421715.4,286046997.6,N
1542421735.3,286046997.1,N
1542421755.1,286046996.5,N
1542421756.0,286046996.5,N
1542421775.8,286046997.7,N
1542421795.7,286046997.6,N
1542421815.5,286046995.4,Y
1542421835.3,286046999.6,P
1542421855.2,286046996.5,P
1542421875.0,286046997.5,N
1542421875.9,286046997.5,N
1542421895.8,286046996.7,Y
1542421915.6,286047000.7,P
1542421935.4,286046998.3,N
1542421955.3,286046998.2,N
1542421975.1,286046998.5,N
1542421995.9,286047000.4,N
1542422015.7,286047000.8,N
1542422035.5,286047000.8,N
1542422055.4,286047000.7,N
1542422075.2,286047001.2,N
1542422095.1,286046996.5,N
1542422096.0,286046996.5,N
1542422115.8,286046996.5,N
1542422135.6,286046999.0,N
1542422155.5,286046999.4,N
1542422175.3,286046998.5,N
1542422195.1,286047000.8,N
1542422215.9,286047000.6,N
1542422235.7,286047000.9,N
1542422255.6,286046998.2,N
1542422275.4,286046999.0,N
1542422295.2,286046999.1,N
1542422315.1,286046997.1,N
1542422316.0,286046997.1,N
1542422335.8,286046996.5,N
1542422355.6,286046999.5,N
1542422375.5,286046999.0,N
1542422395.3,286046998.7,N
1542422415.2,286046998.6,N
1542422435.9,286046998.2,N
1542422455.7,286046998.5,N
1542422475.6,286046999.1,N
1542422495.4,286046996.5,N
1542422515.2,286046999.3,N
1542422535.1,286046999.6,N
1542422536.0,286046999.6,N
1542422555.8,286046997.3,N
1542422575.7,286046997.7,N
1542422595.5,286046996.7,N
1542422615.3,286046997.0,N
1542422635.2,286046999.1,N
1542422655.9,286046999.3,N
1542422675.7,286046998.8,N
1542422695.6,286046999.4,N
1542422715.4,286046996.6,N
1542422735.3,286046997.8,N
1542422755.1,286046997.5,N
1542422756.0,286046997.5,N
1542422775.8,286046996.7,N
1542422795.7,286046999.5,N
1542422815.5,286046996.9,N
1542422835.4,286046997.4,N
1542422855.2,286046996.7,Y
1542422875.0,286046998.5,P
1542422875.9,286046998.5,P
1542422895.8,286046998.5,P
1542422915.6,286046998.1,Y
1542422935.5,286047000.6,P
1542422955.3,286047000.4,N
1542422975.1,286047001.6,N
1542422995.9,286047002.0,N
1542423015.7,286046999.9,N
1542423035.5,286046998.1,N
1542423055.4,286046998.1,N
1542423075.2,286046996.8,N
1542423095.1,286046995.3,N
1542423096.0,286046995.3,N
1542423115.8,286046994.9,N
1542423135.6,286046997.5,N
1542423155.5,286046997.6,N
1542423175.3,286046995.4,N
1542423195.2,286046995.5,N
1542423215.0,286046997.6,N
1542423215.9,286046997.6,N
1542423235.7,286046997.9,N
1542423255.6,286046997.7,N
1542423275.4,286046997.0,N
1542423295.3,286046996.9,N
1542423315.1,286046998.9,N
1542423335.8,286046998.9,N
1542423355.7,286046998.5,N
1542423375.5,286046998.7,N
1542423395.4,286046998.6,N
1542423415.2,286046998.3,N
1542423435.0,286047000.5,N
1542423435.9,286047000.5,N
1542423455.8,286047001.1,N
1542423475.6,286047002.2,N
1542423495.5,286047002.3,N
1542423515.3,286047001.4,N
1542423535.1,286047002.1,N
1542423555.5,286047002.1,N
1542423575.4,286047002.5,N
1542423595.2,286047002.2,N
